Year,Month,Day,Hour,Minute,Value (Times are PST for temperature in C)
2015,09,22,00,00,11.10
2015,09,22,00,01,11.10
2015,09,22,00,02,11.10
2015,09,22,00,03,11.10
2015,09,22,00,04,11.10
2015,09,22,00,05,11.10
2015,09,22,00,06,11.10
2015,09,22,00,07,11.10
2015,09,22,00,08,11.10
2015,09,22,00,09,11.10
2015,09,22,00,10,11.10
2015,09,22,00,11,11.10
2015,09,22,00,12,11.10
2015,09,22,00,13,11.10
2015,09,22,00,14,11.10
2015,09,22,00,15,11.00
2015,09,22,00,16,11.00
2015,09,22,00,17,10.90
2015,09,22,00,18,10.90
2015,09,22,00,19,10.90
2015,09,22,00,20,10.90
2015,09,22,00,21,10.90
2015,09,22,00,22,10.90
2015,09,22,00,23,10.90
2015,09,22,00,24,10.90
2015,09,22,00,25,10.90
2015,09,22,00,26,10.90
2015,09,22,00,27,10.90
2015,09,22,00,28,10.90
2015,09,22,00,29,10.90
2015,09,22,00,30,10.90
2015,09,22,00,31,10.90
2015,09,22,00,32,10.90
2015,09,22,00,33,10.90
2015,09,22,00,34,10.90
2015,09,22,00,35,10.90
2015,09,22,00,36,10.90
2015,09,22,00,37,10.90
2015,09,22,00,38,10.90
2015,09,22,00,39,10.90
2015,09,22,00,40,10.90
2015,09,22,00,41,10.90
2015,09,22,00,42,10.90
2015,09,22,00,43,10.90
2015,09,22,00,44,10.90
2015,09,22,00,45,10.90
2015,09,22,00,46,10.90
2015,09,22,00,47,10.90
2015,09,22,00,48,10.90
2015,09,22,00,49,10.90
2015,09,22,00,50,10.80
2015,09,22,00,51,10.80
2015,09,22,00,52,10.80
2015,09,22,00,53,10.80
2015,09,22,00,54,10.80
2015,09,22,00,55,10.80
2015,09,22,00,56,10.80
2015,09,22,00,57,10.80
2015,09,22,00,58,10.80
2015,09,22,00,59,10.80
2015,09,22,01,00,10.80
2015,09,22,01,01,10.80
2015,09,22,01,02,10.80
2015,09,22,01,03,10.80
2015,09,22,01,04,10.80
2015,09,22,01,05,10.80
2015,09,22,01,06,10.70
2015,09,22,01,07,10.70
2015,09,22,01,08,10.70
2015,09,22,01,09,10.70
2015,09,22,01,10,10.70
2015,09,22,01,11,10.70
2015,09,22,01,12,10.70
2015,09,22,01,13,10.70
2015,09,22,01,14,10.70
2015,09,22,01,15,10.60
2015,09,22,01,16,10.60
2015,09,22,01,17,10.60
2015,09,22,01,18,10.60
2015,09,22,01,19,10.60
2015,09,22,01,20,10.60
2015,09,22,01,21,10.60
2015,09,22,01,22,10.60
2015,09,22,01,23,10.60
2015,09,22,01,24,10.60
2015,09,22,01,25,10.60
2015,09,22,01,26,10.60
2015,09,22,01,27,10.60
2015,09,22,01,28,10.60
2015,09,22,01,29,10.60
2015,09,22,01,30,10.60
2015,09,22,01,31,10.60
2015,09,22,01,32,10.60
2015,09,22,01,33,10.60
2015,09,22,01,34,10.60
2015,09,22,01,35,10.50
2015,09,22,01,36,10.40
2015,09,22,01,37,10.40
2015,09,22,01,38,10.40
2015,09,22,01,39,10.40
2015,09,22,01,40,10.40
2015,09,22,01,41,10.40
2015,09,22,01,42,10.40
2015,09,22,01,43,10.40
2015,09,22,01,44,10.40
2015,09,22,01,45,10.40
2015,09,22,01,46,10.40
2015,09,22,01,47,10.40
2015,09,22,01,48,10.40
2015,09,22,01,49,10.40
2015,09,22,01,50,10.40
2015,09,22,01,51,10.40
2015,09,22,01,52,10.40
2015,09,22,01,53,10.40
2015,09,22,01,54,10.40
2015,09,22,01,55,10.30
2015,09,22,01,56,10.30
2015,09,22,01,57,10.30
2015,09,22,01,58,10.30
2015,09,22,01,59,10.30
2015,09,22,02,00,10.30
2015,09,22,02,01,10.30
2015,09,22,02,02,10.30
2015,09,22,02,03,10.30
2015,09,22,02,04,10.30
2015,09,22,02,05,10.20
2015,09,22,02,06,10.20
2015,09,22,02,07,10.20
2015,09,22,02,08,10.20
2015,09,22,02,09,10.20
2015,09,22,02,10,10.20
2015,09,22,02,11,10.20
2015,09,22,02,12,10.20
2015,09,22,02,13,10.20
2015,09,22,02,14,10.20
2015,09,22,02,15,10.10
2015,09,22,02,16,10.10
2015,09,22,02,17,10.10
2015,09,22,02,18,10.10
2015,09,22,02,19,10.10
2015,09,22,02,20,10.10
2015,09,22,02,21,10.10
2015,09,22,02,22,10.10
2015,09,22,02,23,10.10
2015,09,22,02,24,10.10
2015,09,22,02,25,10.10
2015,09,22,02,26,10.10
2015,09,22,02,27,10.10
2015,09,22,02,28,10.10
2015,09,22,02,29,10.10
2015,09,22,02,30,10.10
2015,09,22,02,31,10.10
2015,09,22,02,32,10.20
2015,09,22,02,33,10.20
2015,09,22,02,34,10.20
2015,09,22,02,35,10.20
2015,09,22,02,36,10.20
2015,09,22,02,37,10.20
2015,09,22,02,38,10.20
2015,09,22,02,39,10.20
2015,09,22,02,40,10.20
2015,09,22,02,41,10.20
2015,09,22,02,42,10.20
2015,09,22,02,43,10.20
2015,09,22,02,44,10.20
2015,09,22,02,45,10.30
2015,09,22,02,46,10.30
2015,09,22,02,47,10.30
2015,09,22,02,48,10.30
2015,09,22,02,49,10.30
2015,09,22,02,50,10.30
2015,09,22,02,51,10.30
2015,09,22,02,52,10.20
2015,09,22,02,53,10.20
2015,09,22,02,54,10.20
2015,09,22,02,55,10.20
2015,09,22,02,56,10.20
2015,09,22,02,57,10.20
2015,09,22,02,58,10.10
2015,09,22,02,59,10.10
2015,09,22,03,00,10.10
2015,09,22,03,01,10.10
2015,09,22,03,02,10.10
2015,09,22,03,03,10.10
2015,09,22,03,04,10.10
2015,09,22,03,05,10.10
2015,09,22,03,06,9.90
2015,09,22,03,07,9.90
2015,09,22,03,08,9.90
2015,09,22,03,09,9.90
2015,09,22,03,10,9.90
2015,09,22,03,11,9.80
2015,09,22,03,12,9.80
2015,09,22,03,13,9.70
2015,09,22,03,14,9.70
2015,09,22,03,15,9.70
2015,09,22,03,16,9.70
2015,09,22,03,17,9.60
2015,09,22,03,18,9.60
2015,09,22,03,19,9.50
2015,09,22,03,20,9.50
2015,09,22,03,21,9.40
2015,09,22,03,22,9.40
2015,09,22,03,23,9.30
2015,09,22,03,24,9.30
2015,09,22,03,25,9.20
2015,09,22,03,26,9.20
2015,09,22,03,27,9.20
2015,09,22,03,28,9.20
2015,09,22,03,29,9.10
2015,09,22,03,30,9.10
2015,09,22,03,31,9.00
2015,09,22,03,32,9.00
2015,09,22,03,33,9.00
2015,09,22,03,34,8.90
2015,09,22,03,35,8.90
2015,09,22,03,36,8.90
2015,09,22,03,37,8.80
2015,09,22,03,38,8.80
2015,09,22,03,39,8.80
2015,09,22,03,40,8.70
2015,09,22,03,41,8.70
2015,09,22,03,42,8.70
2015,09,22,03,43,8.70
2015,09,22,03,44,8.70
2015,09,22,03,45,8.70
2015,09,22,03,46,8.70
2015,09,22,03,47,8.70
2015,09,22,03,48,8.70
2015,09,22,03,49,8.70
2015,09,22,03,50,8.70
2015,09,22,03,51,8.70
2015,09,22,03,52,8.70
2015,09,22,03,53,8.70
2015,09,22,03,54,8.70
2015,09,22,03,55,8.70
2015,09,22,03,56,8.70
2015,09,22,03,57,8.70
2015,09,22,03,58,8.70
2015,09,22,03,59,8.70
2015,09,22,04,00,8.70
2015,09,22,04,01,8.70
2015,09,22,04,02,8.70
2015,09,22,04,03,8.70
2015,09,22,04,04,8.70
2015,09,22,04,05,8.70
2015,09,22,04,06,8.70
2015,09,22,04,07,8.70
2015,09,22,04,08,8.70
2015,09,22,04,09,8.60
2015,09,22,04,10,8.60
2015,09,22,04,11,8.60
2015,09,22,04,12,8.50
2015,09,22,04,13,8.50
2015,09,22,04,14,8.40
2015,09,22,04,15,8.40
2015,09,22,04,16,8.30
2015,09,22,04,17,8.20
2015,09,22,04,18,8.20
2015,09,22,04,19,8.20
2015,09,22,04,20,8.20
2015,09,22,04,21,8.10
2015,09,22,04,22,8.10
2015,09,22,04,23,8.10
2015,09,22,04,24,8.10
2015,09,22,04,25,8.00
2015,09,22,04,26,8.00
2015,09,22,04,27,8.00
2015,09,22,04,28,7.90
2015,09,22,04,29,7.90
2015,09,22,04,30,7.90
2015,09,22,04,31,7.90
2015,09,22,04,32,7.80
2015,09,22,04,33,7.80
2015,09,22,04,34,7.80
2015,09,22,04,35,7.80
2015,09,22,04,36,7.80
2015,09,22,04,37,7.80
2015,09,22,04,38,7.80
2015,09,22,04,39,7.80
2015,09,22,04,40,7.80
2015,09,22,04,41,7.80
2015,09,22,04,42,7.80
2015,09,22,04,43,7.80
2015,09,22,04,44,7.80
2015,09,22,04,45,7.80
2015,09,22,04,46,7.80
2015,09,22,04,47,7.70
2015,09,22,04,48,7.70
2015,09,22,04,49,7.60
2015,09,22,04,50,7.60
2015,09,22,04,51,7.60
2015,09,22,04,52,7.50
2015,09,22,04,53,7.50
2015,09,22,04,54,7.60
2015,09,22,04,55,7.60
2015,09,22,04,56,7.60
2015,09,22,04,57,7.50
2015,09,22,04,58,7.50
2015,09,22,04,59,7.50
2015,09,22,05,00,7.50
2015,09,22,05,01,7.50
2015,09,22,05,02,7.40
2015,09,22,05,03,7.40
2015,09,22,05,04,7.40
2015,09,22,05,05,7.40
2015,09,22,05,06,7.40
2015,09,22,05,07,7.40
2015,09,22,05,08,7.40
2015,09,22,05,09,7.40
2015,09,22,05,10,7.40
2015,09,22,05,11,7.40
2015,09,22,05,12,7.40
2015,09,22,05,13,7.40
2015,09,22,05,14,7.40
2015,09,22,05,15,7.40
2015,09,22,05,16,7.40
2015,09,22,05,17,7.40
2015,09,22,05,18,7.40
2015,09,22,05,19,7.40
2015,09,22,05,20,7.40
2015,09,22,05,21,7.40
2015,09,22,05,22,7.40
2015,09,22,05,23,7.30
2015,09,22,05,24,7.30
2015,09,22,05,25,7.30
2015,09,22,05,26,7.30
2015,09,22,05,27,7.30
2015,09,22,05,28,7.30
2015,09,22,05,29,7.30
2015,09,22,05,30,7.30
2015,09,22,05,31,7.30
2015,09,22,05,32,7.30
2015,09,22,05,33,7.30
2015,09,22,05,34,7.30
2015,09,22,05,35,7.30
2015,09,22,05,36,7.30
2015,09,22,05,37,7.30
2015,09,22,05,38,7.30
2015,09,22,05,39,7.30
2015,09,22,05,40,7.40
2015,09,22,05,41,7.40
2015,09,22,05,42,7.40
2015,09,22,05,43,7.40
2015,09,22,05,44,7.30
2015,09,22,05,45,7.20
2015,09,22,05,46,7.10
2015,09,22,05,47,7.00
2015,09,22,05,48,7.00
2015,09,22,05,49,6.90
2015,09,22,05,50,6.90
2015,09,22,05,51,6.90
2015,09,22,05,52,6.90
2015,09,22,05,53,6.90
2015,09,22,05,54,6.90
2015,09,22,05,55,6.90
2015,09,22,05,56,6.90
2015,09,22,05,57,6.90
2015,09,22,05,58,6.90
2015,09,22,05,59,6.80
2015,09,22,06,00,6.80
2015,09,22,06,01,6.80
2015,09,22,06,02,6.80
2015,09,22,06,03,6.80
2015,09,22,06,04,6.80
2015,09,22,06,05,6.80
2015,09,22,06,06,6.80
2015,09,22,06,07,6.80
2015,09,22,06,08,6.80
2015,09,22,06,09,6.80
2015,09,22,06,10,6.80
2015,09,22,06,11,6.80
2015,09,22,06,12,6.80
2015,09,22,06,13,6.70
2015,09,22,06,14,6.70
2015,09,22,06,15,6.70
2015,09,22,06,16,6.70
2015,09,22,06,17,6.60
2015,09,22,06,18,6.60
2015,09,22,06,19,6.60
2015,09,22,06,20,6.60
2015,09,22,06,21,6.60
2015,09,22,06,22,6.50
2015,09,22,06,23,6.40
2015,09,22,06,24,6.40
2015,09,22,06,25,6.40
2015,09,22,06,26,6.40
2015,09,22,06,27,6.40
2015,09,22,06,28,6.40
2015,09,22,06,29,6.40
2015,09,22,06,30,6.40
2015,09,22,06,31,6.40
2015,09,22,06,32,6.40
2015,09,22,06,33,6.40
2015,09,22,06,34,6.40
2015,09,22,06,35,6.30
2015,09,22,06,36,6.30
2015,09,22,06,37,6.30
2015,09,22,06,38,6.40
2015,09,22,06,39,6.40
2015,09,22,06,40,6.40
2015,09,22,06,41,6.40
2015,09,22,06,42,6.40
2015,09,22,06,43,6.40
2015,09,22,06,44,6.40
2015,09,22,06,45,6.40
2015,09,22,06,46,6.40
2015,09,22,06,47,6.40
2015,09,22,06,48,6.40
2015,09,22,06,49,6.40
2015,09,22,06,50,6.40
2015,09,22,06,51,6.40
2015,09,22,06,52,6.40
2015,09,22,06,53,6.40
2015,09,22,06,54,6.30
2015,09,22,06,55,6.30
2015,09,22,06,56,6.20
2015,09,22,06,57,6.20
2015,09,22,06,58,6.20
2015,09,22,06,59,6.20
2015,09,22,07,00,6.20
2015,09,22,07,01,6.10
2015,09,22,07,02,6.10
2015,09,22,07,03,6.10
2015,09,22,07,04,6.10
2015,09,22,07,05,6.10
2015,09,22,07,06,6.00
2015,09,22,07,07,6.00
2015,09,22,07,08,6.00
2015,09,22,07,09,6.00
2015,09,22,07,10,6.00
2015,09,22,07,11,6.10
2015,09,22,07,12,6.10
2015,09,22,07,13,6.10
2015,09,22,07,14,6.20
2015,09,22,07,15,6.20
2015,09,22,07,16,6.20
2015,09,22,07,17,6.20
2015,09,22,07,18,6.30
2015,09,22,07,19,6.30
2015,09,22,07,20,6.30
2015,09,22,07,21,6.30
2015,09,22,07,22,6.30
2015,09,22,07,23,6.30
2015,09,22,07,24,6.40
2015,09,22,07,25,6.40
2015,09,22,07,26,6.40
2015,09,22,07,27,6.50
2015,09,22,07,28,6.60
2015,09,22,07,29,6.60
2015,09,22,07,30,6.60
2015,09,22,07,31,6.70
2015,09,22,07,32,6.70
2015,09,22,07,33,6.80
2015,09,22,07,34,6.80
2015,09,22,07,35,6.80
2015,09,22,07,36,6.90
2015,09,22,07,37,6.90
2015,09,22,07,38,7.00
2015,09,22,07,39,7.00
2015,09,22,07,40,7.00
2015,09,22,07,41,7.00
2015,09,22,07,42,7.10
2015,09,22,07,43,7.10
2015,09,22,07,44,7.10
2015,09,22,07,45,7.10
2015,09,22,07,46,7.20
2015,09,22,07,47,7.20
2015,09,22,07,48,7.20
2015,09,22,07,49,7.30
2015,09,22,07,50,7.30
2015,09,22,07,51,7.40
2015,09,22,07,52,7.40
2015,09,22,07,53,7.50
2015,09,22,07,54,7.50
2015,09,22,07,55,7.60
2015,09,22,07,56,7.60
2015,09,22,07,57,7.70
2015,09,22,07,58,7.70
2015,09,22,07,59,7.70
2015,09,22,08,00,7.80
2015,09,22,08,01,7.80
2015,09,22,08,02,7.80
2015,09,22,08,03,7.80
2015,09,22,08,04,7.90
2015,09,22,08,05,7.90
2015,09,22,08,06,7.90
2015,09,22,08,07,8.00
2015,09,22,08,08,8.10
2015,09,22,08,09,8.10
2015,09,22,08,10,8.20
2015,09,22,08,11,8.20
2015,09,22,08,12,8.30
2015,09,22,08,13,8.30
2015,09,22,08,14,8.40
2015,09,22,08,15,8.40
2015,09,22,08,16,8.50
2015,09,22,08,17,8.60
2015,09,22,08,18,8.70
2015,09,22,08,19,8.70
2015,09,22,08,20,8.80
2015,09,22,08,21,8.80
2015,09,22,08,22,8.90
2015,09,22,08,23,8.90
2015,09,22,08,24,9.00
2015,09,22,08,25,9.00
2015,09,22,08,26,9.10
2015,09,22,08,27,9.10
2015,09,22,08,28,9.20
2015,09,22,08,29,9.20
2015,09,22,08,30,9.20
2015,09,22,08,31,9.30
2015,09,22,08,32,9.40
2015,09,22,08,33,9.50
2015,09,22,08,34,9.60
2015,09,22,08,35,9.70
2015,09,22,08,36,9.90
2015,09,22,08,37,9.90
2015,09,22,08,38,10.10
2015,09,22,08,39,10.10
2015,09,22,08,40,10.20
2015,09,22,08,41,10.30
2015,09,22,08,42,10.40
2015,09,22,08,43,10.40
2015,09,22,08,44,10.50
2015,09,22,08,45,10.60
2015,09,22,08,46,10.60
2015,09,22,08,47,10.60
2015,09,22,08,48,10.70
2015,09,22,08,49,10.70
2015,09,22,08,50,10.80
2015,09,22,08,51,10.90
2015,09,22,08,52,10.90
2015,09,22,08,53,11.10
2015,09,22,08,54,11.10
2015,09,22,08,55,11.20
2015,09,22,08,56,11.30
2015,09,22,08,57,11.40
2015,09,22,08,58,11.50
2015,09,22,08,59,11.60
2015,09,22,09,00,11.60
2015,09,22,09,01,11.70
2015,09,22,09,02,11.70
2015,09,22,09,03,11.70
2015,09,22,09,04,11.70
2015,09,22,09,05,11.80
2015,09,22,09,06,11.80
2015,09,22,09,07,11.90
2015,09,22,09,08,11.90
2015,09,22,09,09,12.00
2015,09,22,09,10,12.10
2015,09,22,09,11,12.10
2015,09,22,09,12,12.20
2015,09,22,09,13,12.20
2015,09,22,09,14,12.20
2015,09,22,09,15,12.20
2015,09,22,09,16,12.20
2015,09,22,09,17,12.30
2015,09,22,09,18,12.30
2015,09,22,09,19,12.30
2015,09,22,09,20,12.30
2015,09,22,09,21,12.40
2015,09,22,09,22,12.40
2015,09,22,09,23,12.40
2015,09,22,09,24,12.40
2015,09,22,09,25,12.50
2015,09,22,09,26,12.50
2015,09,22,09,27,12.60
2015,09,22,09,28,12.60
2015,09,22,09,29,12.60
2015,09,22,09,30,12.50
2015,09,22,09,31,12.60
2015,09,22,09,32,12.60
2015,09,22,09,33,12.50
2015,09,22,09,34,12.40
2015,09,22,09,35,12.40
2015,09,22,09,36,12.40
2015,09,22,09,37,12.30
2015,09,22,09,38,12.30
2015,09,22,09,39,12.30
2015,09,22,09,40,12.30
2015,09,22,09,41,12.40
2015,09,22,09,42,12.40
2015,09,22,09,43,12.40
2015,09,22,09,44,12.50
2015,09,22,09,45,12.50
2015,09,22,09,46,12.60
2015,09,22,09,47,12.50
2015,09,22,09,48,12.50
2015,09,22,09,49,12.60
2015,09,22,09,50,12.60
2015,09,22,09,51,12.70
2015,09,22,09,52,12.70
2015,09,22,09,53,12.80
2015,09,22,09,54,12.80
2015,09,22,09,55,12.80
2015,09,22,09,56,12.80
2015,09,22,09,57,12.80
2015,09,22,09,58,12.80
2015,09,22,09,59,12.80
2015,09,22,10,00,12.80
2015,09,22,10,01,12.80
2015,09,22,10,02,12.80
2015,09,22,10,03,12.80
2015,09,22,10,04,12.80
2015,09,22,10,05,12.90
2015,09,22,10,06,12.90
2015,09,22,10,07,13.00
2015,09,22,10,08,13.00
2015,09,22,10,09,13.10
2015,09,22,10,10,13.10
2015,09,22,10,11,13.00
2015,09,22,10,12,13.00
2015,09,22,10,13,13.10
2015,09,22,10,14,13.10
2015,09,22,10,15,13.20
2015,09,22,10,16,13.20
2015,09,22,10,17,13.10
2015,09,22,10,18,13.10
2015,09,22,10,19,13.20
2015,09,22,10,20,13.20
2015,09,22,10,21,13.20
2015,09,22,10,22,13.10
2015,09,22,10,23,13.20
2015,09,22,10,24,13.20
2015,09,22,10,25,13.10
2015,09,22,10,26,13.00
2015,09,22,10,27,12.80
2015,09,22,10,28,12.80
2015,09,22,10,29,12.80
2015,09,22,10,30,12.80
2015,09,22,10,31,12.80
2015,09,22,10,32,12.80
2015,09,22,10,33,12.80
2015,09,22,10,34,12.80
2015,09,22,10,35,12.80
2015,09,22,10,36,12.80
2015,09,22,10,37,12.80
2015,09,22,10,38,12.80
2015,09,22,10,39,12.80
2015,09,22,10,40,12.90
2015,09,22,10,41,13.00
2015,09,22,10,42,13.10
2015,09,22,10,43,13.10
2015,09,22,10,44,13.10
2015,09,22,10,45,13.20
2015,09,22,10,46,13.20
2015,09,22,10,47,13.30
2015,09,22,10,48,13.30
2015,09,22,10,49,13.30
2015,09,22,10,50,13.40
2015,09,22,10,51,13.50
2015,09,22,10,52,13.50
2015,09,22,10,53,13.60
2015,09,22,10,54,13.50
2015,09,22,10,55,13.50
2015,09,22,10,56,13.50
2015,09,22,10,57,13.60
2015,09,22,10,58,13.60
2015,09,22,10,59,13.60
2015,09,22,11,00,13.60
2015,09,22,11,01,13.70
2015,09,22,11,02,13.70
2015,09,22,11,03,13.80
2015,09,22,11,04,13.80
2015,09,22,11,05,13.90
2015,09,22,11,06,13.90
2015,09,22,11,07,14.00
2015,09,22,11,08,14.00
2015,09,22,11,09,14.10
2015,09,22,11,10,14.10
2015,09,22,11,11,14.10
2015,09,22,11,12,14.00
2015,09,22,11,13,13.90
2015,09,22,11,14,13.80
2015,09,22,11,15,13.80
2015,09,22,11,16,13.80
2015,09,22,11,17,13.90
2015,09,22,11,18,13.90
2015,09,22,11,19,13.90
2015,09,22,11,20,13.80
2015,09,22,11,21,13.80
2015,09,22,11,22,13.80
2015,09,22,11,23,13.80
2015,09,22,11,24,13.70
2015,09,22,11,25,13.60
2015,09,22,11,26,13.60
2015,09,22,11,27,13.60
2015,09,22,11,28,13.60
2015,09,22,11,29,13.70
2015,09,22,11,30,13.70
2015,09,22,11,31,13.70
2015,09,22,11,32,13.70
2015,09,22,11,33,13.70
2015,09,22,11,34,13.70
2015,09,22,11,35,13.70
2015,09,22,11,36,13.80
2015,09,22,11,37,13.80
2015,09,22,11,38,13.90
2015,09,22,11,39,13.90
2015,09,22,11,40,14.00
2015,09,22,11,41,14.00
2015,09,22,11,42,14.00
2015,09,22,11,43,14.00
2015,09,22,11,44,14.00
2015,09,22,11,45,14.00
2015,09,22,11,46,14.00
2015,09,22,11,47,14.00
2015,09,22,11,48,14.10
2015,09,22,11,49,14.10
2015,09,22,11,50,14.10
2015,09,22,11,51,14.10
2015,09,22,11,52,14.10
2015,09,22,11,53,14.00
2015,09,22,11,54,13.90
2015,09,22,11,55,13.80
2015,09,22,11,56,13.80
2015,09,22,11,57,13.90
2015,09,22,11,58,13.90
2015,09,22,11,59,13.90
2015,09,22,12,00,13.90
2015,09,22,12,01,13.80
2015,09,22,12,02,13.90
2015,09,22,12,03,13.90
2015,09,22,12,04,13.90
2015,09,22,12,05,13.80
2015,09,22,12,06,13.90
2015,09,22,12,07,13.90
2015,09,22,12,08,13.90
2015,09,22,12,09,13.90
2015,09,22,12,10,13.90
2015,09,22,12,11,14.00
2015,09,22,12,12,14.00
2015,09,22,12,13,14.00
2015,09,22,12,14,14.00
2015,09,22,12,15,14.10
2015,09,22,12,16,14.20
2015,09,22,12,17,14.20
2015,09,22,12,18,14.20
2015,09,22,12,19,14.20
2015,09,22,12,20,14.20
2015,09,22,12,21,14.20
2015,09,22,12,22,14.20
2015,09,22,12,23,14.20
2015,09,22,12,24,14.20
2015,09,22,12,25,14.10
2015,09,22,12,26,14.00
2015,09,22,12,27,13.80
2015,09,22,12,28,13.60
2015,09,22,12,29,13.60
2015,09,22,12,30,13.50
2015,09,22,12,31,13.30
2015,09,22,12,32,13.30
2015,09,22,12,33,13.30
2015,09,22,12,34,13.20
2015,09,22,12,35,13.10
2015,09,22,12,36,13.10
2015,09,22,12,37,13.00
2015,09,22,12,38,13.00
2015,09,22,12,39,13.10
2015,09,22,12,40,13.00
2015,09,22,12,41,12.90
2015,09,22,12,42,12.90
2015,09,22,12,43,12.80
2015,09,22,12,44,12.60
2015,09,22,12,45,12.50
2015,09,22,12,46,12.50
2015,09,22,12,47,12.40
2015,09,22,12,48,12.40
2015,09,22,12,49,12.40
2015,09,22,12,50,12.50
2015,09,22,12,51,12.60
2015,09,22,12,52,12.70
2015,09,22,12,53,12.70
2015,09,22,12,54,12.60
2015,09,22,12,55,12.60
2015,09,22,12,56,12.60
2015,09,22,12,57,12.70
2015,09,22,12,58,12.70
2015,09,22,12,59,12.80
2015,09,22,13,00,12.90
2015,09,22,13,01,12.90
2015,09,22,13,02,13.00
2015,09,22,13,03,13.10
2015,09,22,13,04,13.00
2015,09,22,13,05,13.00
2015,09,22,13,06,13.00
2015,09,22,13,07,13.00
2015,09,22,13,08,13.10
2015,09,22,13,09,13.20
2015,09,22,13,10,13.30
2015,09,22,13,11,13.30
2015,09,22,13,12,13.40
2015,09,22,13,13,13.50
2015,09,22,13,14,13.60
2015,09,22,13,15,13.70
2015,09,22,13,16,13.80
2015,09,22,13,17,13.80
2015,09,22,13,18,13.70
2015,09,22,13,19,13.60
2015,09,22,13,20,13.70
2015,09,22,13,21,13.70
2015,09,22,13,22,13.80
2015,09,22,13,23,13.90
2015,09,22,13,24,14.00
2015,09,22,13,25,14.20
2015,09,22,13,26,14.20
2015,09,22,13,27,14.20
2015,09,22,13,28,14.20
2015,09,22,13,29,14.20
2015,09,22,13,30,14.20
2015,09,22,13,31,14.20
2015,09,22,13,32,14.20
2015,09,22,13,33,14.20
2015,09,22,13,34,14.20
2015,09,22,13,35,14.20
2015,09,22,13,36,14.20
2015,09,22,13,37,14.20
2015,09,22,13,38,14.30
2015,09,22,13,39,14.30
2015,09,22,13,40,14.30
2015,09,22,13,41,14.30
2015,09,22,13,42,14.30
2015,09,22,13,43,14.30
2015,09,22,13,44,14.20
2015,09,22,13,45,14.20
2015,09,22,13,46,14.30
2015,09,22,13,47,14.30
2015,09,22,13,48,14.40
2015,09,22,13,49,14.30
2015,09,22,13,50,14.00
2015,09,22,13,51,13.80
2015,09,22,13,52,13.60
2015,09,22,13,53,13.30
2015,09,22,13,54,13.10
2015,09,22,13,55,13.10
2015,09,22,13,56,13.10
2015,09,22,13,57,13.20
2015,09,22,13,58,13.30
2015,09,22,13,59,13.40
2015,09,22,14,00,13.60
2015,09,22,14,01,13.70
2015,09,22,14,02,13.80
2015,09,22,14,03,13.80
2015,09,22,14,04,13.70
2015,09,22,14,05,13.60
2015,09,22,14,06,13.50
2015,09,22,14,07,13.50
2015,09,22,14,08,13.40
2015,09,22,14,09,13.30
2015,09,22,14,10,13.30
2015,09,22,14,11,13.30
2015,09,22,14,12,13.30
2015,09,22,14,13,13.20
2015,09,22,14,14,13.20
2015,09,22,14,15,13.30
2015,09,22,14,16,13.30
2015,09,22,14,17,13.20
2015,09,22,14,18,13.10
2015,09,22,14,19,13.20
2015,09,22,14,20,13.20
2015,09,22,14,21,13.20
2015,09,22,14,22,13.20
2015,09,22,14,23,13.00
2015,09,22,14,24,12.90
2015,09,22,14,25,12.90
2015,09,22,14,26,13.00
2015,09,22,14,27,13.10
2015,09,22,14,28,13.10
2015,09,22,14,29,13.10
2015,09,22,14,30,13.10
2015,09,22,14,31,13.10
2015,09,22,14,32,13.10
2015,09,22,14,33,13.20
2015,09,22,14,34,13.10
2015,09,22,14,35,13.20
2015,09,22,14,36,13.20
2015,09,22,14,37,13.30
2015,09,22,14,38,13.30
2015,09,22,14,39,13.40
2015,09,22,14,40,13.50
2015,09,22,14,41,13.50
2015,09,22,14,42,13.50
2015,09,22,14,43,13.30
2015,09,22,14,44,13.30
2015,09,22,14,45,13.30
2015,09,22,14,46,13.50
2015,09,22,14,47,13.60
2015,09,22,14,48,13.60
2015,09,22,14,49,13.70
2015,09,22,14,50,13.70
2015,09,22,14,51,13.80
2015,09,22,14,52,13.80
2015,09,22,14,53,13.70
2015,09,22,14,54,13.70
2015,09,22,14,55,13.70
2015,09,22,14,56,13.70
2015,09,22,14,57,13.60
2015,09,22,14,58,13.60
2015,09,22,14,59,13.70
2015,09,22,15,00,13.60
2015,09,22,15,01,13.50
2015,09,22,15,02,13.60
2015,09,22,15,03,13.70
2015,09,22,15,04,13.80
2015,09,22,15,05,13.80
2015,09,22,15,06,13.90
2015,09,22,15,07,13.80
2015,09,22,15,08,13.50
2015,09,22,15,09,13.30
2015,09,22,15,10,13.10
2015,09,22,15,11,13.00
2015,09,22,15,12,13.00
2015,09,22,15,13,12.90
2015,09,22,15,14,12.80
2015,09,22,15,15,12.90
2015,09,22,15,16,12.90
2015,09,22,15,17,13.00
2015,09,22,15,18,13.00
2015,09,22,15,19,13.10
2015,09,22,15,20,13.10
2015,09,22,15,21,13.10
2015,09,22,15,22,13.20
2015,09,22,15,23,13.10
2015,09,22,15,24,13.00
2015,09,22,15,25,13.10
2015,09,22,15,26,13.20
2015,09,22,15,27,13.30
2015,09,22,15,28,13.50
2015,09,22,15,29,13.50
2015,09,22,15,30,13.50
2015,09,22,15,31,13.50
2015,09,22,15,32,13.50
2015,09,22,15,33,13.40
2015,09,22,15,34,13.30
2015,09,22,15,35,13.30
2015,09,22,15,36,13.30
2015,09,22,15,37,13.30
2015,09,22,15,38,13.40
2015,09,22,15,39,13.40
2015,09,22,15,40,13.50
2015,09,22,15,41,13.40
2015,09,22,15,42,13.30
2015,09,22,15,43,13.10
2015,09,22,15,44,13.00
2015,09,22,15,45,12.90
2015,09,22,15,46,13.00
2015,09,22,15,47,13.10
2015,09,22,15,48,13.10
2015,09,22,15,49,13.10
2015,09,22,15,50,13.20
2015,09,22,15,51,13.20
2015,09,22,15,52,13.20
2015,09,22,15,53,13.20
2015,09,22,15,54,13.20
2015,09,22,15,55,13.30
2015,09,22,15,56,13.30
2015,09,22,15,57,13.40
2015,09,22,15,58,13.30
2015,09,22,15,59,13.30
2015,09,22,16,00,13.10
2015,09,22,16,01,13.00
2015,09,22,16,02,13.00
2015,09,22,16,03,13.00
2015,09,22,16,04,13.00
2015,09,22,16,05,13.00
2015,09,22,16,06,12.90
2015,09,22,16,07,13.00
2015,09,22,16,08,13.10
2015,09,22,16,09,13.20
2015,09,22,16,10,13.20
2015,09,22,16,11,13.00
2015,09,22,16,12,12.90
2015,09,22,16,13,12.80
2015,09,22,16,14,12.70
2015,09,22,16,15,12.70
2015,09,22,16,16,12.70
2015,09,22,16,17,12.70
2015,09,22,16,18,12.70
2015,09,22,16,19,12.70
2015,09,22,16,20,12.80
2015,09,22,16,21,12.80
2015,09,22,16,22,12.90
2015,09,22,16,23,13.00
2015,09,22,16,24,13.20
2015,09,22,16,25,13.30
2015,09,22,16,26,13.40
2015,09,22,16,27,13.50
2015,09,22,16,28,13.50
2015,09,22,16,29,13.50
2015,09,22,16,30,13.60
2015,09,22,16,31,13.60
2015,09,22,16,32,13.70
2015,09,22,16,33,13.70
2015,09,22,16,34,13.70
2015,09,22,16,35,13.70
2015,09,22,16,36,13.70
2015,09,22,16,37,13.70
2015,09,22,16,38,13.70
2015,09,22,16,39,13.70
2015,09,22,16,40,13.70
2015,09,22,16,41,13.70
2015,09,22,16,42,13.70
2015,09,22,16,43,13.70
2015,09,22,16,44,13.60
2015,09,22,16,45,13.50
2015,09,22,16,46,13.40
2015,09,22,16,47,13.30
2015,09,22,16,48,13.20
2015,09,22,16,49,13.20
2015,09,22,16,50,13.20
2015,09,22,16,51,13.20
2015,09,22,16,52,13.20
2015,09,22,16,53,13.20
2015,09,22,16,54,13.20
2015,09,22,16,55,13.20
2015,09,22,16,56,13.10
2015,09,22,16,57,13.10
2015,09,22,16,58,13.00
2015,09,22,16,59,13.00
2015,09,22,17,00,13.00
2015,09,22,17,01,12.90
2015,09,22,17,02,12.90
2015,09,22,17,03,13.00
2015,09,22,17,04,13.10
2015,09,22,17,05,13.10
2015,09,22,17,06,13.10
2015,09,22,17,07,13.10
2015,09,22,17,08,13.20
2015,09,22,17,09,13.20
2015,09,22,17,10,13.20
2015,09,22,17,11,13.20
2015,09,22,17,12,13.30
2015,09,22,17,13,13.20
2015,09,22,17,14,13.10
2015,09,22,17,15,13.10
2015,09,22,17,16,13.10
2015,09,22,17,17,13.10
2015,09,22,17,18,13.00
2015,09,22,17,19,13.00
2015,09,22,17,20,13.10
2015,09,22,17,21,13.10
2015,09,22,17,22,13.20
2015,09,22,17,23,13.20
2015,09,22,17,24,13.20
2015,09,22,17,25,13.20
2015,09,22,17,26,13.30
2015,09,22,17,27,13.30
2015,09,22,17,28,13.30
2015,09,22,17,29,13.20
2015,09,22,17,30,13.20
2015,09,22,17,31,13.20
2015,09,22,17,32,13.20
2015,09,22,17,33,13.20